Regional Weather Roundup
Issued by NWS

Home | Current Version | Previous Version | Text Only | Print | Product List | Glossary Off
Versions: 1 2 3 4 5 6 7 8 9 10 11 12 13 14 15 16 17 18 19 20 21 22 23 24 25 26 27 28 29 30 31 32 33 34 35 36 37 38 39 40 41 42 43 44 45 46 47 48 49 50

000
ASUS43 KLSX 241807
RWRMO

WEATHER SUMMARY FOR MISSOURI
NATIONAL WEATHER SERVICE SPRINGFIELD MO
100 PM CDT SUN SEP 24 2017

NOTE: "FAIR" INDICATES FEW OR NO CLOUDS BELOW 12,000 FEET WITH NO
       SIGNIFICANT WEATHER AND/OR OBSTRUCTIONS TO VISIBILITY.
       CURRENT SKY AND/OR WEATHER CONDITIONS ARE NOT AVAILABLE FOR
       CHILLICOTHE AND FARMINGTON.

MOZ001>031-035>038-043-044-053-054-241900-
...NORTHERN AND WESTERN MISSOURI...

CITY           SKY/WX    TMP DP  RH WIND       PRES   REMARKS
KANSAS CTY INT MOSUNNY   86  69  56 SW13      29.98F HX  90
6HR MIN TEMP:  67; 6HR MAX TEMP:  86;

KANSAS C DTWN  MOSUNNY   87  69  54 S10       29.96F HX  91
6HR MIN TEMP:  73; 6HR MAX TEMP:  88;

LEE`S SUMMIT   MOSUNNY   87  69  54 S13       29.99F HX  91
6HR MIN TEMP:  71; 6HR MAX TEMP:  87;

ST JOSEPH      MOSUNNY   89  68  49 S13       29.95F HX  93
6HR MIN TEMP:  69; 6HR MAX TEMP:  91;

CHILLICOTHE      N/A     87  69  54 VRB5      29.99F HX  91
6HR MIN TEMP:  68; 6HR MAX TEMP:  88;

KIRKSVILLE     MOSUNNY   88  66  48 S10       30.01F HX  90
6HR MIN TEMP:  63; 6HR MAX TEMP:  88;


$$
MOZ066>068-077>081-088>096-101>105-241900-
...SOUTHWEST MISSOURI...

CITY           SKY/WX    TMP DP  RH WIND       PRES   REMARKS
SPRINGFIELD    PTSUNNY   85  67  54 S8        30.02S
6HR MIN TEMP:  67; 6HR MAX TEMP:  87;

JOPLIN         MOSUNNY   86  68  54 SW9       29.99F
6HR MIN TEMP:  69; 6HR MAX TEMP:  86;

BRANSON        PTSUNNY   90  63  40 S10       30.03F HX  90

$$
MOZ032>034-039>042-045>050-055>058-069>072-241900-
...CENTRAL MISSOURI...

CITY           SKY/WX    TMP DP  RH WIND       PRES   REMARKS
COLUMBIA       MOSUNNY   85  67  54 S10       30.02F
6HR MIN TEMP:  68; 6HR MAX TEMP:  88;

JEFFERSON CITY MOSUNNY   87  65  47 MISG      30.00F
6HR MIN TEMP:  66; 6HR MAX TEMP:  88;

ROLLA          SUNNY     89  65  44 SE8       30.03F HX  91
6HR MIN TEMP:  65; 6HR MAX TEMP:  90;

SEDALIA        MOSUNNY   88  69  53 S9        30.01F HX  92
6HR MIN TEMP:  67; 6HR MAX TEMP:  90;

WHITEMAN AFB   MOSUNNY   85  70  60 SW12      29.99S
WARRENSBURG    MOSUNNY   86  64  48 S10       29.99F
OSAGE BEACH    MOSUNNY   87  68  52 S10G16    30.02F HX  90

$$
MOZ051-052-059>065-241900-
...EAST CENTRAL MISSOURI...

CITY           SKY/WX    TMP DP  RH WIND       PRES   REMARKS
ST LOUIS INTL  MOSUNNY   88  65  46 S5        30.03F HX  90
6HR MIN TEMP:  69; 6HR MAX TEMP:  89;

SPIRIT OF STL  PTSUNNY   88  68  51 E8        30.01F HX  91
6HR MIN TEMP:  65; 6HR MAX TEMP:  89;

ST CHARLES     MOSUNNY   89  64  43 S7        30.01F HX  90
6HR MIN TEMP:  66; 6HR MAX TEMP:  91;


$$
MOZ072>076-082>087-097>100-106>115-241900-
...SOUTH CENTRAL AND SOUTHEAST MISSOURI...

CITY           SKY/WX    TMP DP  RH WIND       PRES   REMARKS
CAPE GIRARDEAU SUNNY     90  66  45 VRB5      30.00F HX  92
6HR MIN TEMP:  67; 6HR MAX TEMP:  90;

FARMINGTON     MOSUNNY   86  66  51 CALM      30.04F
6HR MIN TEMP:  62; 6HR MAX TEMP:  88;

POPLAR BLUFF   MOSUNNY   89  67  47 SE6       30.00F HX  92
6HR MIN TEMP:  66; 6HR MAX TEMP:  90;

WEST PLAINS    PTSUNNY   87  64  46 VRB7      30.05F
6HR MIN TEMP:  63; 6HR MAX TEMP:  88;


$$



USA.gov is the U.S. government's official web portal to all federal, state and local government web resources and services.